Probability
35 42 55 52 55 35 39 48 45 32 29 32 35 39 42 32 23 26 26 23 23 19 19 16 3 3 0 3 0 0 0 0 0 0 0 0 0 0 0 0 3 3 6
35 45 42 58 58 45 42 39 42 39 35 42 29 26 23 23 26 26 26 23 23 19 19 13 10 10 3 3 3 3 0 0 0 0 0 0 0 0 0 0 0 0 0
42 45 48 52 61 55 48 55 45 45 45 35 26 23 16 23 29 23 26 26 19 19 19 16 10 10 3 3 3 3 0 0 0 0 0 0 0 0 0 0 0 0 0
48 55 55 58 58 68 55 52 48 45 45 42 29 32 29 32 35 32 29 23 23 16 16 16 10 10 6 3 3 3 3 3 0 0 0 0 0 0 0 0 0 0 0
45 48 55 65 65 65 65 55 48 52 45 39 35 29 32 26 16 16 23 19 16 13 13 19 10 10 6 3 3 3 3 0 0 0 0 0 0 0 0 0 0 0 0
45 48 58 68 71 74 77 61 55 52 35 35 35 35 32 23 16 19 19 23 13 13 13 16 10 6 10 6 3 3 3 3 3 3 0 0 0 0 0 0 0 0 0
42 35 52 58 65 61 71 71 61 45 45 32 29 26 26 13 16 16 10 16 16 16 13 6 6 6 0 0 3 0 3 3 3 3 3 3 0 0 0 0 0 0 0
29 35 55 61 61 61 58 68 58 55 52 45 39 35 19 19 23 10 13 13 13 13 10 10 6 6 3 3 3 3 3 3 0 3 3 3 3 3 0 0 0 0 0
32 39 48 52 48 48 48 52 55 58 52 48 39 32 26 23 23 10 10 10 6 6 3 3 6 6 6 6 3 0 0 0 0 0 0 0 3 3 3 0 0 0 0
32 39 48 48 45 45 45 45 55 55 55 48 35 32 32 29 26 16 6 6 6 6 3 3 3 3 3 3 3 3 0 0 0 0 0 0 0 0 3 3 0 0 0
26 32 42 42 42 45 42 48 42 45 42 42 42 39 29 32 26 19 13 10 10 10 13 6 3 3 3 3 3 3 3 3 0 0 0 0 0 0 0 0 0 0 0
29 39 45 42 45 42 42 42 45 45 42 42 42 39 32 23 19 19 19 13 10 10 6 10 10 10 10 3 3 3 3 0 0 0 0 0 0 0 0 0 0 0 0
42 42 39 39 42 42 42 45 45 45 45 35 35 32 26 19 16 16 16 10 10 3 3 3 3 3 6 6 6 3 3 3 3 3 0 0 0 0 0 0 0 0 0
35 35 39 39 39 42 45 45 45 45 42 39 32 26 26 23 16 13 10 10 10 10 6 3 3 3 3 3 3 3 3 3 0 3 0 0 0 0 0 0 0 0 0
35 35 39 35 32 35 35 35 35 35 32 32 29 26 23 19 13 13 13 10 10 6 6 6 3 3 3 3 3 3 3 3 3 0 0 0 0 0 0 0 0 0 0
32 32 35 32 35 32 32 32 32 32 29 29 29 19 16 10 13 10 10 10 6 6 6 6 6 3 3 3 0 0 0 0 0 0 0 0 0 0 0 0 0 0 0
29 32 29 29 29 29 29 32 29 23 23 19 23 19 16 16 10 10 10 10 6 6 6 6 6 6 0 0 0 0 0 0 0 0 0 0 0 0 0 0 0 0 0
26 32 29 23 19 19 19 16 19 23 19 19 19 13 13 13 13 10 10 6 6 6 6 6 3 3 0 0 0 0 0 0 0 0 0 0 0 0 0 0 0 0 0
23 19 16 16 16 16 16 16 16 16 16 19 19 13 13 13 13 13 6 3 3 3 3 3 3 3 3 0 0 0 0 0 0 0 0 0 0 0 0 0 0 0 0
13 10 13 13 13 13 13 16 6 6 10 13 10 10 10 10 10 6 3 3 3 3 3 3 3 3 3 0 0 0 0 0 0 0 0 0 0 0 0 0 0 0 0
10 10 6 10 6 6 10 6 6 6 6 3 6 10 10 6 6 0 0 0 3 3 3 3 3 3 3 0 0 0 0 0 0 0 0 0 0 0 0 0 0 0 0
6 6 6 3 3 3 3 6 6 6 6 3 3 3 0 0 0 0 0 0 0 0 0 0 0 3 0 0 0 0 0 0 0 0 0 0 0 0 0 0 0 0 0
3 3 3 0 0 3 3 3 3 6 6 3 3 0 0 0 0 0 0 0 0 0 0 0 0 0 0 0 0 0 0 0 0 0 0 0 0 0 0 0 0 0 0
3 3 0 0 0 0 0 3 0 3 3 0 0 0 0 0 0 0 0 0 0 0 0 0 0 0 0 0 0 0 0 0 0 0 0 0 0 0 0 0 0 0 0
0 0 0 0 0 0 0 0 0 0 0 0 0 0 0 0 0 0 0 0 0 0 0 0 0 0 0 0 0 0 0 0 0 0 0 0 0 0 0 0 0 0 0
0 0 0 0 0 0 0 0 0 0 0 0 0 0 0 0 0 0 0 0 0 0 0 0 0 0 0 0 0 0 0 0 0 0 0 0 0 0 0 0 0 0 0
Height
5900 5900 5899 5899 5898 5897 5896 5895 5896 5896 5896 5896 5895 5895 5895 5895 5895 5895 5896 5897 5898 5899 5900 5901 5902 5903 5904 5905 5905 5906 5907 5907 5908 5908 5909 5909 5909 5909 5909 5909 5909 5909 5909
5899 5899 5898 5898 5897 5896 5896 5895 5895 5895 5895 5895 5895 5895 5894 5894 5894 5894 5895 5896 5897 5898 5898 5899 5900 5901 5902 5903 5904 5905 5905 5906 5906 5907 5907 5908 5908 5908 5908 5908 5908 5908 5907
5897 5897 5897 5896 5896 5895 5894 5894 5894 5893 5893 5893 5894 5894 5894 5893 5893 5893 5894 5894 5895 5896 5897 5897 5898 5899 5900 5901 5902 5903 5903 5904 5905 5905 5906 5906 5906 5906 5907 5906 5906 5906 5906
5895 5895 5894 5894 5894 5893 5892 5893 5893 5893 5892 5892 5892 5892 5892 5891 5891 5891 5892 5892 5892 5893 5894 5895 5896 5897 5898 5898 5899 5900 5901 5902 5902 5903 5903 5904 5904 5904 5904 5905 5905 5904 5904
5892 5892 5892 5891 5891 5891 5890 5891 5891 5891 5891 5890 5890 5890 5890 5889 5889 5889 5889 5890 5890 5891 5892 5893 5894 5894 5895 5896 5897 5897 5898 5899 5899 5900 5900 5901 5901 5901 5902 5902 5902 5902 5902
5889 5889 5888 5888 5888 5888 5888 5888 5888 5888 5888 5888 5887 5887 5887 5887 5887 5887 5887 5887 5888 5888 5889 5890 5891 5892 5893 5893 5894 5895 5895 5896 5896 5896 5897 5897 5898 5898 5898 5899 5898 5898 5898
5885 5885 5884 5885 5885 5884 5884 5885 5884 5884 5884 5885 5885 5885 5884 5884 5884 5884 5885 5885 5885 5886 5886 5887 5888 5889 5890 5890 5891 5891 5892 5892 5893 5893 5893 5894 5894 5895 5895 5895 5895 5895 5895
5882 5882 5882 5881 5881 5880 5881 5881 5881 5880 5881 5881 5881 5881 5881 5881 5882 5881 5882 5882 5882 5883 5883 5884 5885 5886 5886 5887 5887 5888 5888 5888 5889 5889 5889 5890 5890 5890 5891 5891 5891 5891 5891
5878 5878 5878 5878 5878 5877 5877 5877 5877 5877 5877 5878 5878 5878 5878 5878 5878 5879 5879 5879 5879 5880 5880 5881 5881 5882 5883 5883 5883 5884 5884 5884 5885 5885 5885 5885 5886 5886 5886 5886 5886 5887 5886
5874 5875 5874 5874 5874 5874 5874 5873 5874 5874 5874 5874 5874 5874 5874 5875 5875 5875 5875 5876 5876 5877 5877 5877 5878 5879 5879 5879 5879 5880 5880 5880 5880 5880 5880 5881 5881 5880 5881 5881 5881 5881 5881
5871 5870 5871 5870 5870 5870 5870 5869 5870 5870 5871 5871 5871 5871 5872 5872 5872 5872 5872 5872 5873 5873 5873 5874 5874 5875 5875 5875 5875 5875 5875 5875 5875 5875 5875 5875 5875 5875 5875 5875 5875 5875 5875
5867 5867 5867 5867 5866 5866 5866 5866 5866 5867 5868 5868 5868 5868 5869 5869 5869 5869 5869 5869 5869 5869 5870 5870 5871 5871 5871 5871 5870 5870 5870 5870 5870 5870 5870 5870 5869 5869 5869 5869 5869 5868 5868
5863 5863 5863 5862 5862 5862 5863 5863 5863 5864 5865 5865 5864 5865 5865 5865 5865 5865 5865 5865 5866 5866 5866 5866 5867 5867 5867 5866 5866 5866 5865 5865 5865 5865 5864 5864 5864 5864 5863 5863 5862 5862 5861
5860 5860 5859 5858 5858 5858 5859 5860 5861 5862 5862 5862 5862 5862 5862 5862 5861 5861 5861 5862 5862 5862 5863 5863 5863 5863 5862 5862 5862 5861 5861 5860 5860 5860 5859 5859 5858 5858 5857 5857 5856 5855 5855
5857 5857 5856 5856 5855 5855 5857 5858 5858 5859 5860 5859 5859 5859 5859 5858 5858 5858 5858 5858 5858 5858 5859 5859 5858 5858 5858 5858 5857 5856 5856 5856 5855 5855 5854 5854 5853 5852 5851 5851 5850 5849 5848
5853 5854 5854 5854 5853 5853 5854 5855 5856 5856 5856 5856 5856 5855 5855 5855 5854 5854 5854 5854 5855 5854 5855 5855 5854 5854 5854 5853 5853 5852 5852 5851 5850 5850 5849 5848 5848 5847 5845 5844 5843 5842 5841
5850 5851 5851 5852 5852 5851 5851 5852 5853 5853 5853 5853 5853 5852 5852 5851 5851 5851 5851 5851 5851 5850 5850 5850 5850 5849 5849 5849 5848 5847 5847 5846 5845 5844 5844 5843 5842 5840 5839 5837 5836 5834 5833
5846 5847 5848 5848 5849 5849 5849 5850 5849 5849 5849 5849 5849 5849 5848 5848 5848 5848 5847 5847 5847 5846 5846 5845 5845 5845 5844 5844 5843 5843 5842 5841 5840 5839 5838 5837 5835 5834 5832 5831 5829 5827 5825
5842 5843 5844 5845 5846 5846 5846 5846 5846 5846 5846 5846 5846 5846 5845 5845 5845 5844 5844 5843 5843 5842 5842 5841 5840 5840 5840 5839 5838 5837 5836 5835 5834 5833 5832 5831 5829 5827 5826 5824 5822 5819 5818
5838 5839 5840 5841 5842 5843 5843 5843 5842 5842 5842 5842 5842 5842 5842 5842 5841 5840 5840 5839 5839 5838 5838 5837 5836 5836 5835 5834 5833 5832 5831 5830 5829 5828 5826 5824 5823 5821 5819 5817 5815 5812 5810
5833 5835 5836 5837 5838 5839 5839 5839 5839 5838 5838 5839 5839 5839 5839 5838 5837 5836 5836 5835 5834 5834 5833 5832 5832 5831 5830 5830 5828 5827 5826 5825 5823 5822 5820 5818 5817 5815 5813 5810 5808 5805 5803
5829 5830 5832 5833 5834 5834 5834 5834 5835 5835 5835 5835 5835 5835 5835 5834 5834 5833 5832 5831 5830 5829 5828 5828 5827 5826 5825 5824 5823 5822 5820 5819 5818 5816 5814 5812 5810 5808 5806 5804 5801 5799 5796
5824 5826 5827 5829 5830 5830 5830 5831 5831 5831 5831 5831 5830 5831 5831 5830 5829 5829 5828 5827 5826 5825 5824 5823 5822 5821 5819 5818 5817 5816 5814 5813 5811 5810 5808 5806 5804 5802 5799 5797 5794 5791 5788
5819 5821 5822 5824 5824 5825 5825 5826 5826 5826 5826 5826 5826 5826 5826 5825 5825 5824 5823 5822 5821 5820 5819 5818 5817 5815 5814 5813 5811 5810 5808 5807 5805 5803 5801 5799 5797 5795 5792 5790 5787 5783 5780
5813 5815 5817 5818 5818 5819 5820 5820 5821 5821 5821 5821 5821 5821 5821 5820 5819 5819 5818 5817 5816 5815 5814 5813 5811 5810 5808 5807 5805 5804 5802 5800 5799 5797 5795 5792 5790 5787 5784 5781 5778 5775 5771
5808 5810 5811 5812 5812 5813 5814 5814 5815 5815 5816 5816 5816 5816 5815 5815 5814 5813 5812 5811 5810 5809 5808 5807 5805 5804 5802 5801 5799 5797 5796 5794 5792 5790 5788 5785 5783 5780 5777 5773 5770 5766 5763
Wind_Speed
7 6 7 8 8 8 8 6 5 5 6 5 4 4 5 6 6 7 7 8 9 9 9 9 9 9 8 8 8 7 6 6 6 6 6 6 6 5 5 5 6 5 5
7 7 8 9 9 9 8 7 7 6 6 6 5 4 4 5 6 7 8 9 10 10 10 10 9 9 10 10 9 9 9 8 8 8 8 8 8 7 7 7 7 7 7
9 10 10 10 10 9 8 8 8 7 7 7 6 6 6 6 7 7 8 9 9 10 10 10 10 10 10 10 11 11 11 10 10 10 10 10 10 10 9 9 9 9 9
10 10 11 11 11 10 9 9 9 8 7 7 8 8 8 8 8 9 9 9 9 10 10 10 11 11 11 11 11 12 12 13 13 13 12 12 12 12 12 11 11 11 11
11 11 12 12 12 11 10 10 10 9 9 9 9 9 9 9 9 10 10 10 10 10 10 10 11 11 12 12 12 13 13 14 14 14 14 14 14 14 14 14 13 13 13
13 13 13 14 14 13 13 12 12 11 11 10 10 10 10 10 10 10 11 11 11 11 11 11 12 12 13 13 13 13 14 14 15 16 16 16 16 16 16 16 16 16 16
15 15 14 14 14 14 14 13 12 12 11 11 12 11 11 11 11 11 12 12 11 11 12 12 13 13 14 15 15 14 15 16 16 17 18 18 18 18 18 18 18 17 17
16 16 15 15 15 15 14 14 13 13 12 12 13 12 12 12 11 11 12 13 13 13 13 14 14 14 14 14 15 15 15 16 17 18 19 19 19 20 20 20 20 19 19
15 16 16 15 15 15 14 14 13 12 13 13 13 13 12 12 12 13 12 13 13 13 13 14 15 16 16 16 16 16 16 16 17 18 18 19 20 21 21 21 21 22 21
15 15 15 15 15 15 15 15 13 12 12 13 13 14 14 13 13 12 13 13 12 13 14 14 15 15 16 17 17 18 18 18 19 19 20 20 20 21 22 23 23 23 23
16 16 16 15 15 15 15 14 13 13 13 14 14 14 14 14 14 13 14 13 13 14 14 15 15 16 16 17 18 19 19 20 20 20 20 21 22 22 22 23 23 24 24
17 16 15 16 15 14 14 13 13 13 13 14 15 14 14 14 14 14 14 14 14 14 15 15 16 16 17 18 19 19 19 19 19 20 20 21 21 22 22 23 24 25 26
15 15 15 15 15 14 13 13 13 12 13 13 13 14 14 14 14 14 14 14 14 14 14 15 16 17 18 18 19 19 19 19 20 20 19 21 21 22 23 24 24 26 26
13 14 14 13 13 13 12 11 11 11 12 12 12 13 13 13 13 13 13 13 14 15 15 15 16 17 18 18 18 19 19 19 19 19 19 20 22 23 24 24 25 26 26
13 13 12 11 11 10 10 10 10 11 12 11 11 12 12 12 13 13 13 14 14 15 15 16 16 17 17 17 17 18 18 18 19 19 20 20 21 22 23 25 26 26 27
14 13 12 11 10 10 10 10 11 12 12 12 12 12 13 13 13 14 14 14 14 15 16 16 16 17 17 17 17 18 18 19 19 20 21 21 23 24 25 26 27 27 28
14 13 13 13 11 9 10 11 12 12 13 12 12 12 12 12 12 13 14 15 15 15 16 16 17 17 18 19 19 19 19 20 21 21 22 23 24 25 26 26 26 27 28
15 14 13 13 12 11 10 11 12 12 13 12 12 12 12 12 13 13 14 14 15 16 16 17 18 19 19 20 20 20 21 21 21 22 22 22 23 24 25 26 27 28 29
17 16 15 14 13 12 12 12 12 12 12 11 12 12 12 12 13 14 15 16 16 17 17 18 19 19 20 20 21 21 21 21 21 22 23 24 24 24 25 26 27 28 29
17 16 15 14 14 14 14 14 13 12 13 13 13 14 13 13 14 15 15 16 17 18 18 19 19 19 19 19 19 20 21 21 22 23 24 24 24 25 26 26 27 28 29
17 16 16 15 15 15 15 15 14 14 14 14 15 14 14 14 14 14 14 15 16 17 18 18 18 18 19 19 20 21 21 21 22 23 24 24 25 25 26 27 28 28 29
19 17 16 16 15 15 16 15 15 15 15 15 15 15 15 15 15 15 16 16 16 16 17 18 18 19 19 20 21 21 21 22 23 24 25 24 25 26 27 27 28 29 30
19 18 17 17 17 17 16 16 16 17 17 16 16 16 16 16 16 17 17 17 17 17 17 18 18 19 20 21 21 21 22 22 23 24 25 25 25 26 27 28 29 30 31
21 20 19 19 18 18 18 18 18 18 18 18 17 17 17 18 18 18 18 18 18 18 18 19 19 20 21 21 22 23 23 24 24 25 26 26 27 28 29 30 31 32 32
21 20 20 20 20 20 20 20 20 19 19 19 19 18 19 19 19 19 19 19 19 19 20 20 20 21 21 22 23 24 24 25 26 27 27 27 28 29 30 30 32 33 34
19 20 20 19 19 19 19 19 19 20 20 20 20 21 20 20 20 20 19 19 20 20 20 20 21 21 22 23 24 24 24 25 26 26 26 27 29 30 31 32 33 34 34
Wind_Direction
308 321 325 322 316 318 323 309 314 311 304 302 292 291 269 252 242 242 246 245 246 246 246 244 240 240 239 240 242 244 245 246 250 253 257 264 268 274 279 280 279 277 278
301 307 310 316 312 308 309 309 311 298 292 291 294 296 279 260 260 258 252 249 249 248 247 242 242 246 246 246 245 243 245 249 252 255 258 262 263 265 272 275 276 277 276
286 292 297 305 310 304 301 301 299 291 285 284 286 288 277 266 263 261 255 252 253 251 249 249 246 247 248 251 251 246 246 251 255 255 258 258 258 259 265 270 275 278 278
280 284 291 295 301 301 293 286 286 287 285 283 285 284 273 270 267 257 255 254 257 253 250 249 245 248 250 252 254 250 250 253 257 257 257 258 259 260 264 268 272 277 278
275 280 284 285 289 295 289 281 275 277 281 279 276 276 271 271 268 259 254 255 255 250 251 252 251 249 250 252 255 256 255 255 256 256 257 259 260 260 262 266 270 273 275
273 277 278 278 284 287 285 279 276 271 273 273 272 270 272 276 272 261 256 255 251 250 250 253 252 251 253 254 256 259 258 257 258 257 257 258 260 260 261 264 267 271 273
270 274 278 279 279 280 280 276 275 266 267 269 271 272 272 273 272 263 256 255 252 249 250 253 254 256 257 257 260 262 262 259 261 260 258 259 260 261 262 264 267 269 272
265 269 273 278 279 276 278 275 275 268 267 267 268 273 276 272 267 264 258 257 256 254 254 255 257 257 259 260 262 265 267 263 265 264 262 261 261 262 263 265 266 268 270
265 266 267 274 277 277 281 278 273 271 268 267 267 271 275 273 265 266 264 262 259 260 261 261 261 260 261 264 266 265 267 268 266 265 265 264 262 262 263 265 267 268 269
263 266 269 274 274 275 276 273 266 265 270 267 268 271 274 273 268 266 265 262 260 263 262 262 261 262 264 266 266 266 267 268 267 264 265 265 263 264 264 266 268 268 268
264 268 269 271 273 272 274 276 265 261 268 272 271 272 273 272 269 269 265 263 261 262 263 263 263 264 266 268 270 271 272 272 271 267 265 267 266 266 266 267 268 268 269
262 265 269 270 271 270 269 268 263 263 267 270 271 269 269 268 268 268 267 265 263 262 262 264 264 264 267 268 270 273 274 275 274 271 271 268 266 269 268 269 269 269 270
260 267 271 271 266 264 266 265 261 262 268 271 273 269 269 270 268 266 267 266 264 265 266 265 266 269 270 270 270 274 275 275 275 273 273 270 269 272 272 272 272 272 271
262 271 277 277 266 259 259 261 259 264 268 273 274 273 272 273 269 265 266 266 265 266 268 268 268 270 271 273 273 275 275 274 275 273 273 271 272 275 274 273 274 273 272
265 272 277 272 261 253 254 257 263 266 269 274 275 274 274 274 271 268 266 266 265 265 266 269 269 271 272 274 273 274 275 277 277 276 277 276 274 274 275 276 277 277 277
267 273 270 266 264 254 252 256 259 264 269 272 277 276 274 275 272 267 267 268 270 268 267 270 270 274 275 274 275 274 276 276 276 277 279 278 277 278 280 282 279 278 279
267 268 261 262 262 254 252 255 259 265 269 272 276 279 277 277 275 272 272 271 271 270 273 271 272 276 276 275 275 275 276 277 277 278 279 280 279 280 282 283 282 281 280
259 263 267 266 260 259 258 260 264 264 269 275 278 280 279 279 277 276 277 274 275 275 272 270 271 273 276 275 275 277 278 278 279 280 281 282 282 283 282 283 283 283 283
257 262 264 261 257 259 262 265 269 269 276 280 280 284 286 284 281 280 280 279 278 276 274 274 272 273 276 276 276 276 277 279 281 282 282 283 282 283 284 285 286 286 285
262 263 261 260 259 261 264 270 274 274 276 276 278 280 285 288 286 282 281 280 279 276 274 274 274 277 279 279 281 282 281 281 282 283 284 285 286 286 286 287 289 289 288
258 260 256 258 259 260 265 269 271 272 273 274 275 277 281 289 291 289 286 284 281 280 278 278 280 280 282 283 283 284 283 284 285 286 286 286 289 290 290 291 292 291 289
252 256 255 257 258 262 266 268 272 276 278 279 277 279 282 285 288 290 293 293 290 289 287 284 283 282 282 281 281 282 283 285 287 288 289 288 291 293 294 294 293 292 291
251 255 255 256 258 263 266 268 272 275 276 280 278 279 282 284 286 288 291 292 290 287 287 285 284 283 283 283 283 283 285 287 288 290 291 290 292 294 295 295 294 294 295
249 253 255 256 260 263 265 267 270 273 275 276 278 279 281 283 284 286 288 289 287 287 288 287 285 285 285 284 285 286 286 288 290 292 293 292 293 294 295 295 295 296 297
250 253 255 260 262 265 268 268 270 273 274 274 276 278 280 282 283 284 285 285 286 287 288 288 286 285 285 286 287 288 289 290 292 294 294 294 295 296 297 298 298 298 299
249 252 255 258 261 265 267 267 268 271 272 272 274 277 279 280 282 285 285 284 287 288 288 288 287 285 286 287 287 288 290 293 294 295 296 298 298 298 299 300 300 300 301